CAPE
0 0 0 0 0 0 0 0 0 0 0 0 0 0 0 0 0 119 45 133 708 460 1596 2088 2657 2891 2712 2516 2270 2101 1762 1803 1908 1868 1767 1931 2056 2056 1882 1724 1554 1200 634 91 0 0 0 0 0
0 0 0 0 0 0 0 0 0 0 0 0 0 0 0 0 25 89 223 46 959 718 1552 1686 2665 2805 2784 2539 2283 2078 1837 1917 1940 1871 1842 2006 2094 2000 1810 1658 1437 985 294 0 0 0 0 0 0
0 0 0 0 0 0 0 0 0 0 0 0 0 0 0 0 0 0 15 108 1289 1064 1193 2055 2628 2746 2856 2762 2405 2133 1929 1943 1975 1953 1942 2094 2101 1958 1747 1585 1328 834 135 6 0 0 0 0 0
0 0 0 0 0 0 0 0 0 0 0 0 0 0 0 0 0 0 77 231 1246 1282 717 2033 2513 2647 2758 2791 2556 2324 2155 2026 2024 2057 2057 2146 2079 1879 1666 1538 1281 800 206 21 4 0 0 0 0
0 0 0 0 0 0 0 0 0 0 0 0 0 0 0 0 0 0 157 176 145 1391 890 1860 2358 2575 2702 2761 2616 2449 2374 2170 2129 2167 2172 2207 2001 1736 1590 1474 1221 791 221 85 40 23 14 3 0
0 0 0 0 0 0 0 0 0 0 0 0 0 0 0 0 0 0 289 293 148 985 1243 2068 2214 2446 2507 2593 2463 2345 2272 2225 2234 2219 2228 2184 1892 1615 1462 1290 1129 667 315 170 106 49 43 40 17
0 0 0 0 0 0 0 0 0 0 0 0 0 0 0 0 0 0 220 356 390 547 1427 1886 1465 2316 2500 2361 2232 2157 2021 1997 2008 1962 1943 1886 1657 1374 1212 1063 845 638 508 293 212 179 134 128 77
0 0 0 1 7 0 0 0 0 0 0 0 0 0 3 0 0 0 0 428 393 306 1141 1933 1119 1558 2032 2066 2165 2044 1975 1843 1721 1714 1668 1523 1359 1132 976 641 584 679 660 470 405 340 262 244 195
0 0 0 0 0 4 5 0 0 0 0 0 0 0 0 0 0 0 0 31 503 403 844 1592 810 1256 1188 1464 1904 1963 1996 1848 1722 1518 1496 1030 955 668 486 231 339 690 749 603 531 446 374 365 332
0 0 0 0 0 0 3 21 52 0 0 0 0 0 0 0 0 0 0 0 563 631 374 916 879 972 851 576 1672 1619 1666 1575 1516 1356 1337 1078 676 512 66 128 446 552 749 727 591 559 506 342 0
0 0 0 0 0 0 0 0 10 3 0 0 0 0 0 0 0 0 0 0 40 462 368 841 1116 1170 821 413 1658 1041 1077 1115 1254 1178 1275 987 521 713 182 207 53 189 493 71 227 173 118 0 0
0 0 0 0 0 0 0 0 0 0 0 0 0 0 0 0 0 0 0 0 0 327 486 1016 1284 1707 1772 644 1481 782 781 873 979 934 1176 1204 912 727 1048 259 138 180 128 29 17 23 23 13 13
0 0 0 0 0 0 0 0 0 0 0 0 0 0 0 0 0 0 0 0 3 290 441 1131 1714 2085 1552 3039 1123 960 515 790 903 1049 1203 1259 662 1351 1378 1859 1014 735 485 179 137 44 264 193 201
0 0 0 0 0 0 0 0 0 0 0 0 0 0 0 0 0 0 0 0 70 118 443 1001 1612 2615 2566 2634 3083 3633 680 983 931 1048 1121 1222 1657 904 1904 1952 1933 1475 1223 830 373 498 670 618 279
0 0 0 0 0 0 0 0 0 0 0 0 0 0 0 0 0 0 0 0 312 228 263 669 1919 2437 2693 2850 3233 2949 2861 1512 982 1058 1565 1341 1693 2457 1579 1591 1306 1345 1266 1881 1943 1574 1502 877 499
0 0 0 0 0 0 0 0 0 0 0 0 0 0 0 0 0 0 0 8 9 162 458 356 692 1943 2655 2609 2598 2957 2674 1937 2231 1715 2536 2023 1831 2390 2857 1625 1379 1197 1722 1635 1215 1218 910 611 290
0 0 0 0 0 0 0 0 0 0 0 0 0 0 0 0 0 0 5 24 41 83 392 918 2036 2203 2173 2811 2328 2692 2541 2654 2337 2644 1654 2402 2526 1945 2028 1748 1316 1988 1615 1180 1401 1582 1155 765 543
0 0 0 0 0 0 0 0 0 0 0 0 0 0 0 0 0 2 16 0 0 99 79 693 1513 2070 2470 2263 2451 1942 2172 2046 1603 1646 1308 1773 1827 2099 1926 1771 2028 2366 1379 948 1139 1395 1173 801 774
0 0 0 0 0 0 0 0 0 0 0 0 0 0 0 0 0 0 0 0 0 3 264 261 1312 2306 1844 1882 1684 1453 1594 1355 857 818 755 1063 1151 1596 1916 1897 1709 1755 1178 859 1150 1300 1112 866 1381
0 0 0 0 0 0 0 0 0 0 0 0 0 0 0 0 0 0 0 0 0 212 326 488 643 1941 1864 1101 1718 1309 1422 1466 1345 769 925 1338 1178 1438 1540 1592 1366 1170 724 791 783 1474 1052 1130 1297
0 0 0 0 0 0 0 0 0 0 0 0 0 0 0 0 0 0 0 0 0 14 287 100 324 628 1077 2217 2235 1933 1912 2458 2378 930 701 520 643 497 1442 1576 1047 836 697 436 995 1606 1636 1100 1912
0 0 0 0 0 0 0 0 0 0 0 0 0 0 0 0 0 0 0 0 0 27 29 0 138 156 368 719 1554 2393 2156 1234 1615 1847 1814 1104 1191 1048 1481 1077 1015 604 912 772 929 1702 1754 1728 1406
0 3 2 0 0 0 0 0 0 0 0 0 0 0 0 0 0 0 0 0 0 0 0 176 139 58 49 415 715 909 1229 1377 475 556 1262 1331 1560 1741 1159 1275 1158 810 1079 878 1358 1523 2310 2572 2424
2 0 1 6 0 0 0 0 0 0 9 2 0 0 0 0 0 0 0 0 0 0 1 42 313 44 88 248 459 1120 807 977 1258 954 282 237 161 243 452 1453 1143 945 700 662 1629 2082 2709 3047 3031
0 7 0 0 0 0 0 9 0 14 0 3 0 0 0 0 0 0 0 0 0 0 0 0 0 248 86 160 145 185 634 585 678 1060 967 949 381 296 202 1102 144 0 8 7 77 37 794 4031 3080
8 5 0 0 0 41 5 2 21 30 1 0 0 0 0 0 0 0 0 5 0 0 0 0 1 20 32 83 121 159 212 415 275 244 273 439 1122 1015 889 642 240 84 22 51 260 517 2806 3583 3550
12 1 0 43 3 44 0 0 53 1 0 0 0 0 0 0 0 1 11 13 11 15 20 7 0 0 1 40 247 413 372 372 142 256 464 414 1077 757 838 850 465 894 915 1889 1744 2959 3208 3414 3355
56 26 23 47 0 0 0 0 1 69 70 1 0 0 0 0 0 6 4 14 49 70 45 211 196 60 16 9 74 28 162 226 224 435 392 420 486 567 1229 1056 2073 2434 2696 3020 3716 3553 3558 3477 3199
172 40 70 77 74 56 0 0 44 51 15 0 0 0 0 0 0 0 0 23 29 22 16 101 188 166 36 0 32 141 59 134 209 199 200 223 701 989 1133 1083 1726 2643 3436 3661 3548 3648 3492 3400 2960
40 112 155 196 51 70 114 2 3 26 3 3 14 1 5 0 0 0 3 3 0 0 0 0 22 35 16 23 41 88 200 359 351 101 150 637 531 1062 1115 1469 1606 1717 1456 2875 3525 3713 3550 3191 2667
CIN
0 0 0 0 0 0 0 0 0 0 0 0 0 0 0 0 0 -98 -172 -21 -241 -434 -467 -393 -274 -226 -154 -124 -114 -94 -97 -91 -55 -39 -36 -17 -12 -12 -21 -24 -28 -64 -134 -299 0 0 0 0 0
0 0 0 0 0 0 0 0 0 0 0 0 0 0 0 0 -37 -37 -87 -63 -248 -393 -447 -408 -281 -259 -178 -128 -122 -113 -101 -89 -67 -62 -53 -21 -17 -26 -35 -41 -55 -104 -209 0 0 0 0 0 0
0 0 0 0 0 0 0 0 0 0 0 0 0 0 0 0 0 0 -144 -116 -238 -334 -422 -350 -247 -233 -204 -127 -94 -102 -109 -93 -76 -77 -59 -28 -30 -45 -60 -61 -81 -141 -324 -157 0 0 0 0 0
0 0 0 0 0 0 0 0 0 0 0 0 0 0 0 0 0 0 -147 -148 -159 -283 -392 -381 -261 -205 -215 -174 -79 -69 -96 -104 -85 -74 -58 -35 -46 -71 -76 -77 -98 -153 -293 -315 -140 0 0 0 0
0 0 0 0 0 0 0 0 0 0 0 0 0 0 0 0 0 0 -179 -143 -145 -194 -299 -406 -284 -239 -224 -188 -123 -43 -52 -81 -88 -70 -47 -36 -57 -89 -96 -93 -112 -153 -267 -285 -318 -348 -374 -97 0
0 0 0 0 0 0 0 0 0 0 0 0 0 0 0 0 0 0 -144 -160 -116 -139 -256 -325 -320 -236 -244 -201 -186 -94 -42 -40 -55 -51 -35 -38 -61 -80 -104 -118 -124 -184 -244 -304 -280 -309 -312 -333 -373
0 0 0 0 0 0 0 0 0 0 0 0 0 0 0 0 0 0 -146 -160 -80 -104 -198 -290 -385 -227 -221 -236 -221 -190 -86 -61 -43 -48 -45 -46 -69 -95 -121 -143 -161 -196 -203 -248 -296 -295 -299 -303 -314
0 0 0 0 0 0 0 0 0 0 0 0 0 0 -16 0 0 0 0 -139 -93 -78 -144 -203 -386 -327 -225 -227 -221 -211 -167 -96 -79 -65 -65 -71 -87 -123 -152 -220 -225 -201 -201 -220 -225 -257 -303 -296 -293
0 0 0 0 0 -1 -1 -15 0 0 0 0 0 0 0 0 0 0 0 -81 -71 -35 -115 -184 -343 -321 -302 -267 -218 -206 -177 -159 -117 -100 -88 -139 -135 -197 -227 -301 -275 -214 -199 -223 -216 -238 -262 -288 -287
0 0 0 0 0 0 -21 -7 -3 0 0 0 0 0 0 0 0 0 0 0 -43 -6 -57 -163 -311 -301 -301 -295 -248 -250 -211 -198 -162 -135 -125 -141 -193 -209 -317 -292 -259 -248 -209 -201 -230 -236 -267 -305 0
0 0 0 0 0 0 0 0 -29 -31 0 0 0 0 0 -1 0 0 0 0 -199 -31 -37 -105 -230 -237 -249 -281 -235 -289 -272 -250 -212 -180 -156 -191 -221 -171 -270 -255 -403 -371 -277 -415 -346 -404 -451 0 0
0 0 0 0 0 0 0 0 0 0 0 -1 0 0 0 0 0 0 0 0 0 -71 -9 -95 -156 -166 -142 -171 -179 -277 -274 -293 -259 -255 -203 -186 -201 -207 -133 -229 -329 -376 -389 -518 -528 -533 -549 -589 -543
0 0 0 0 0 0 0 0 0 0 -1 0 0 0 0 0 0 0 0 -88 -177 -163 -52 -79 -111 -109 -156 -42 -157 -188 -272 -281 -275 -249 -227 -194 -267 -164 -134 -68 -145 -232 -262 -398 -399 -454 -340 -391 -403
0 0 0 0 0 0 0 0 0 0 0 0 0 0 0 0 0 0 0 0 -212 -198 -141 -76 -67 -101 -91 -72 -25 -34 -248 -212 -256 -224 -253 -231 -152 -238 -112 -106 -99 -136 -152 -201 -302 -278 -241 -226 -298
0 0 0 0 0 0 0 0 0 0 0 0 0 0 0 0 0 0 0 0 -85 -188 -126 -147 -79 -105 -97 -77 -40 -39 -49 -65 -158 -186 -180 -243 -179 -96 -158 -176 -200 -194 -188 -128 -122 -123 -117 -197 -238
0 0 0 0 0 0 0 0 0 0 0 0 0 0 0 0 0 0 0 -140 -207 -217 -186 -231 -106 -48 -100 -92 -110 -40 -58 -63 -43 -93 -43 -153 -199 -113 -57 -170 -214 -245 -190 -158 -179 -195 -235 -274 -343
0 0 0 0 0 0 0 0 0 0 0 0 0 0 0 0 0 -32 -13 -83 -140 -212 -193 -178 -78 -41 -87 -65 -76 -111 -57 -36 -83 -36 -80 -60 -115 -169 -152 -159 -225 -141 -187 -213 -168 -162 -208 -293 -305
0 0 0 0 0 0 0 0 0 0 0 0 0 0 0 0 0 -53 -16 0 0 -206 -288 -189 -121 -82 -93 -111 -74 -132 -77 -64 -108 -104 -131 -91 -158 -154 -148 -167 -143 -107 -221 -270 -252 -206 -229 -278 -275
0 0 0 0 0 0 0 0 0 0 0 0 0 0 0 0 0 0 0 0 0 -278 -135 -238 -118 -65 -78 -61 -30 -106 -75 -124 -148 -162 -211 -193 -230 -170 -125 -186 -187 -184 -282 -342 -298 -240 -288 -287 -199
0 0 0 0 0 0 0 0 0 0 0 0 0 0 0 0 0 0 0 0 0 -98 -71 -92 -147 -73 -104 -174 -103 -143 -172 -77 -93 -132 -120 -151 -198 -173 -177 -193 -200 -288 -318 -391 -362 -258 -317 -270 -221
0 0 0 0 0 0 0 0 0 0 0 0 0 0 0 0 0 0 0 0 0 -213 -40 -176 -131 -127 -125 -51 -59 -66 -40 -31 -50 -117 -184 -268 -240 -235 -275 -235 -263 -287 -271 -273 -252 -260 -275 -303 -171
0 0 0 0 0 0 0 0 0 0 0 0 0 0 0 0 0 0 0 0 0 -151 -236 -75 -206 -253 -175 -134 -60 -47 -13 -64 -211 -117 -91 -78 -168 -137 -177 -278 -299 -293 -216 -241 -221 -152 -214 -286 -237
0 0 -1 0 0 0 0 0 0 0 0 0 0 0 0 0 0 0 0 0 0 0 0 -181 -197 -190 -167 -127 -129 -81 -128 -109 -176 -309 -202 -34 -26 -84 -110 -160 -93 -219 -211 -207 -129 -98 -112 -164 -166
-7 -1 -1 -1 0 0 0 0 0 0 -2 -1 0 0 0 0 0 0 0 0 0 0 -89 -134 -44 -171 -122 -63 -177 -78 -135 -98 -40 -102 -211 -253 -170 -10 -27 -102 -69 -248 -230 -223 -76 -11 -21 -82 -89
0 0 0 0 0 0 0 -1 0 -4 0 -3 0 0 0 0 0 0 0 0 0 0 0 0 -34 -18 -93 -71 -93 -79 -33 -118 -29 -13 -23 -13 -36 -334 -498 -197 -442 0 -71 -144 -443 -69 -8 -24 -89
-4 -1 0 0 0 0 -6 -37 0 -5 -5 0 0 0 0 0 0 0 0 -6 0 0 0 0 -1 -188 -104 -24 -40 -81 -106 -84 -141 -173 -158 -126 -93 -107 -56 -242 -397 -111 -64 -19 -43 -188 -2 -17 -21
-6 0 -1 -2 -24 0 0 0 -3 -22 -3 0 0 0 0 0 0 -1 -3 -1 -2 -2 -4 -6 -2 0 -156 -53 -19 -12 -37 -58 -108 -110 -98 -110 -45 -69 -112 -117 -58 -2 -12 -150 -115 0 -8 -12 -17
-1 -3 -6 -3 0 0 0 0 -1 -8 -2 -1 0 0 0 0 0 -1 -4 -4 -5 -5 -9 -20 -47 -80 -115 -88 -37 -34 -38 -37 -39 -49 -86 -107 -105 -118 -89 -164 -63 -4 -20 -23 -11 -6 -7 -9 -18
-19 -1 -2 -27 0 0 0 -7 -48 -22 -35 0 0 -1 0 0 0 0 0 -3 -4 -11 -10 -9 -12 -22 -162 0 -76 -33 -52 -21 -20 -27 -69 -106 -70 -67 -66 -148 -84 -25 -7 -14 -16 -10 -6 -4 -21
-7 -5 0 -4 -1 0 0 -23 -37 -8 -1 -66 -12 -5 -2 -2 0 0 -3 -3 0 0 0 -1 -12 -6 -6 -19 -74 -63 -27 -28 -32 -39 -33 -15 -45 -51 -65 -65 -49 -28 -51 -19 -10 -3 -2 -7 -30
Wind_Speed
nan nan nan nan nan nan nan nan nan nan nan nan nan nan nan nan nan 37 nan 37 35 30 25 25 26 26 18 15 18 18 18 20 20 19 16 10 10 11 12 14 14 17 17 nan nan nan nan nan nan
nan nan nan nan nan nan nan nan nan nan nan nan nan nan nan nan nan nan 41 nan 29 31 24 21 23 26 18 16 15 16 17 18 18 17 14 10 11 14 14 15 15 15 18 nan nan nan nan nan nan
nan nan nan nan nan nan nan nan nan nan nan nan nan nan nan nan nan nan nan 36 30 35 26 25 21 24 23 18 14 17 17 17 17 17 14 12 14 16 17 15 15 16 18 nan nan nan nan nan nan
nan nan nan nan nan nan nan nan nan nan nan nan nan nan nan nan nan nan nan 29 33 36 29 31 23 22 27 24 18 17 20 20 18 17 16 14 15 18 18 17 17 16 17 nan nan nan nan nan nan
nan nan nan nan nan nan nan nan nan nan nan nan nan nan nan nan nan nan 34 30 24 31 29 31 23 23 27 25 23 19 19 20 22 20 16 13 15 17 19 18 18 17 18 nan nan nan nan nan nan
nan nan nan nan nan nan nan nan nan nan nan nan nan nan nan nan nan nan 40 30 24 30 33 31 31 26 32 27 26 24 23 21 22 21 16 14 15 15 17 17 17 16 17 16 17 nan nan nan nan
nan nan nan nan nan nan nan nan nan nan nan nan nan nan nan nan nan nan 42 34 30 33 34 34 29 28 31 34 30 31 28 26 24 23 20 17 17 16 16 16 15 16 17 19 19 20 20 19 nan
nan nan nan nan nan nan nan nan nan nan nan nan nan nan nan nan nan nan nan 40 33 36 35 37 32 31 29 32 34 39 34 28 26 26 24 21 18 17 17 18 16 15 18 19 19 19 21 19 21
nan nan nan nan nan nan nan nan nan nan nan nan nan nan nan nan nan nan nan nan 42 38 40 39 35 31 29 30 35 37 36 33 29 27 28 24 16 17 17 15 21 21 21 22 22 22 20 22 23
nan nan nan nan nan nan nan nan nan nan nan nan nan nan nan nan nan nan nan nan 50 44 45 41 37 33 29 33 38 33 34 27 24 22 23 19 17 19 nan 21 23 25 24 20 21 23 27 21 nan
nan nan nan nan nan nan nan nan nan nan nan nan nan nan nan nan nan nan nan nan nan 60 47 48 44 40 36 35 40 35 32 29 25 23 22 23 20 19 21 22 nan 24 24 nan 21 23 27 nan nan
nan nan nan nan nan nan nan nan nan nan nan nan nan nan nan nan nan nan nan nan nan 61 57 54 46 45 41 40 43 38 34 30 27 24 25 26 23 23 24 24 26 27 27 nan nan nan nan nan nan
nan nan nan nan nan nan nan nan nan nan nan nan nan nan nan nan nan nan nan nan nan 61 56 56 51 49 46 43 47 45 36 36 29 29 29 28 26 25 26 24 25 31 26 27 25 nan 24 23 29
nan nan nan nan nan nan nan nan nan nan nan nan nan nan nan nan nan nan nan nan nan 58 59 66 51 54 53 52 48 46 46 37 31 32 31 30 30 29 29 28 23 24 24 23 25 25 25 33 37
nan nan nan nan nan nan nan nan nan nan nan nan nan nan nan nan nan nan nan nan 50 53 61 64 64 53 57 55 59 53 59 40 50 39 35 33 31 33 28 33 29 24 25 24 22 25 28 27 29
nan nan nan nan nan nan nan nan nan nan nan nan nan nan nan nan nan nan nan nan nan 57 59 63 67 60 61 66 66 63 61 45 52 41 42 39 41 36 33 33 33 29 29 27 25 31 35 29 26
nan nan nan nan nan nan nan nan nan nan nan nan nan nan nan nan nan nan nan nan nan nan 64 64 67 68 63 77 57 57 59 49 51 46 47 45 46 42 38 39 37 34 31 20 20 19 22 21 24
nan nan nan nan nan nan nan nan nan nan nan nan nan nan nan nan nan nan nan nan nan nan nan 66 68 73 72 71 61 64 55 52 49 48 52 50 47 47 38 40 40 38 35 24 17 17 18 14 25
nan nan nan nan nan nan nan nan nan nan nan nan nan nan nan nan nan nan nan nan nan nan 61 67 69 72 72 67 68 68 73 72 51 50 49 53 45 47 45 45 46 33 29 23 19 15 18 18 23
nan nan nan nan nan nan nan nan nan nan nan nan nan nan nan nan nan nan nan nan nan 48 53 64 67 71 72 70 73 73 78 67 61 55 57 50 39 49 56 43 42 36 27 26 20 14 17 21 22
nan nan nan nan nan nan nan nan nan nan nan nan nan nan nan nan nan nan nan nan nan nan 41 68 68 73 77 77 77 82 77 69 69 66 67 59 46 56 59 48 40 37 33 20 26 20 27 28 22
nan nan nan nan nan nan nan nan nan nan nan nan nan nan nan nan nan nan nan nan nan nan nan nan 74 78 82 82 71 72 73 67 64 71 74 63 65 47 59 52 41 30 38 22 27 22 19 29 25
nan nan nan nan nan nan nan nan nan nan nan nan nan nan nan nan nan nan nan nan nan nan nan 48 44 nan nan 84 85 83 80 75 71 63 73 63 67 60 54 60 62 54 30 24 36 12 16 23 27
nan nan nan nan nan nan nan nan nan nan nan nan nan nan nan nan nan nan nan nan nan nan nan nan 47 nan nan 83 77 85 86 84 74 68 64 71 53 51 53 67 65 56 34 26 33 21 7 16 29
nan nan nan nan nan nan nan nan nan nan nan nan nan nan nan nan nan nan nan nan nan nan nan nan nan 47 nan 52 69 66 63 79 80 68 73 63 56 71 67 59 64 nan nan nan nan nan 8 25 32
nan nan nan nan nan nan nan nan nan nan nan nan nan nan nan nan nan nan nan nan nan nan nan nan nan nan nan nan 44 46 61 69 55 56 66 65 60 53 43 51 49 nan nan nan 43 42 25 31 33
nan nan nan nan nan nan nan nan nan nan nan nan nan nan nan nan nan nan nan nan nan nan nan nan nan nan nan nan 46 49 49 44 44 45 52 50 54 57 45 46 30 27 16 35 38 40 35 36 40
nan nan nan nan nan nan nan nan nan nan nan nan nan nan nan nan nan nan nan nan nan nan nan 41 40 nan nan nan nan nan 48 46 42 41 41 50 54 52 51 49 53 38 27 33 37 38 37 42 39
19 nan nan nan nan nan nan nan nan nan nan nan nan nan nan nan nan nan nan nan nan nan nan 44 44 42 nan nan nan 48 nan 47 47 47 46 40 40 42 45 64 49 35 30 33 36 41 44 36 34
nan 19 14 29 nan nan 24 nan nan nan nan nan nan nan nan nan nan nan nan nan nan nan nan nan nan nan nan nan nan nan 52 52 49 47 47 46 43 42 39 39 35 43 36 36 41 45 36 32 36
Wind_Direction
nan nan nan nan nan nan nan nan nan nan nan nan nan nan nan nan nan 231 nan 222 259 271 273 276 276 279 286 291 304 306 309 307 305 302 298 308 314 319 334 343 351 357 356 nan nan nan nan nan nan
nan nan nan nan nan nan nan nan nan nan nan nan nan nan nan nan nan nan 240 nan 257 270 266 261 273 278 279 283 299 304 308 308 305 304 307 322 319 325 336 347 354 356 354 nan nan nan nan nan nan
nan nan nan nan nan nan nan nan nan nan nan nan nan nan nan nan nan nan nan 255 274 271 265 263 262 270 274 276 287 297 299 303 303 302 311 329 331 330 338 351 354 355 357 nan nan nan nan nan nan
nan nan nan nan nan nan nan nan nan nan nan nan nan nan nan nan nan nan nan 236 264 271 270 273 261 261 273 273 274 287 296 299 298 299 313 331 336 338 338 342 347 354 1 nan nan nan nan nan nan
nan nan nan nan nan nan nan nan nan nan nan nan nan nan nan nan nan nan 232 237 247 261 264 273 267 269 275 271 272 269 280 291 298 301 312 329 336 338 339 340 344 349 352 nan nan nan nan nan nan
nan nan nan nan nan nan nan nan nan nan nan nan nan nan nan nan nan nan 228 219 245 254 258 263 269 269 275 272 275 273 269 274 292 300 308 318 322 328 329 329 342 342 344 348 349 nan nan nan nan
nan nan nan nan nan nan nan nan nan nan nan nan nan nan nan nan nan nan 229 220 219 254 251 256 262 262 270 281 278 279 275 274 276 286 291 298 305 312 317 322 335 337 343 346 347 346 350 355 nan
nan nan nan nan nan nan nan nan nan nan nan nan nan nan nan nan nan nan nan 220 222 250 251 251 252 260 264 274 279 281 281 277 276 281 287 290 295 303 313 323 328 332 333 336 345 347 354 2 13
nan nan nan nan nan nan nan nan nan nan nan nan nan nan nan nan nan nan nan nan 212 238 251 245 250 252 254 270 277 272 278 282 283 284 287 288 290 302 312 323 323 328 330 334 341 349 356 3 13
nan nan nan nan nan nan nan nan nan nan nan nan nan nan nan nan nan nan nan nan 220 223 245 239 247 251 254 261 269 265 274 269 276 283 288 282 285 294 nan 318 319 324 328 334 339 352 355 358 nan
nan nan nan nan nan nan nan nan nan nan nan nan nan nan nan nan nan nan nan nan nan 215 230 246 246 248 251 252 262 258 263 268 266 280 282 282 278 282 297 298 nan 305 319 nan 331 339 349 nan nan
nan nan nan nan nan nan nan nan nan nan nan nan nan nan nan nan nan nan nan nan nan 220 220 244 243 243 241 243 254 257 263 259 253 266 276 275 273 278 285 291 302 305 310 nan nan nan nan nan nan
nan nan nan nan nan nan nan nan nan nan nan nan nan nan nan nan nan nan nan nan nan 221 227 235 240 239 243 239 243 243 249 256 247 259 270 269 273 270 275 279 287 297 304 315 317 nan 324 338 338
nan nan nan nan nan nan nan nan nan nan nan nan nan nan nan nan nan nan nan nan nan 228 224 236 241 239 240 237 245 248 256 243 240 249 263 271 260 265 268 272 273 285 293 302 311 314 326 332 341
nan nan nan nan nan nan nan nan nan nan nan nan nan nan nan nan nan nan nan nan 233 230 227 227 238 237 243 242 240 246 230 246 262 235 249 266 260 258 263 269 273 281 290 292 308 310 310 334 336
nan nan nan nan nan nan nan nan nan nan nan nan nan nan nan nan nan nan nan nan nan 229 231 229 230 239 237 233 241 239 226 226 229 237 235 255 259 251 253 259 268 274 276 277 299 305 308 322 324
nan nan nan nan nan nan nan nan nan nan nan nan nan nan nan nan nan nan nan nan nan nan 224 230 230 237 245 239 229 238 230 237 234 224 234 247 252 257 253 253 257 260 266 287 304 301 316 319 324
nan nan nan nan nan nan nan nan nan nan nan nan nan nan nan nan nan nan nan nan nan nan nan 228 230 230 242 247 246 248 235 239 231 226 240 239 248 258 263 251 259 267 267 270 294 301 311 314 321
nan nan nan nan nan nan nan nan nan nan nan nan nan nan nan nan nan nan nan nan nan nan 227 226 233 234 233 243 251 250 255 246 222 233 236 235 252 252 258 251 253 269 273 298 269 313 327 329 317
nan nan nan nan nan nan nan nan nan nan nan nan nan nan nan nan nan nan nan nan nan 253 236 230 234 239 238 237 237 237 248 237 224 226 242 240 248 246 249 266 261 262 269 270 262 289 318 323 319
nan nan nan nan nan nan nan nan nan nan nan nan nan nan nan nan nan nan nan nan nan nan 257 223 233 236 240 239 240 244 243 238 250 247 244 239 247 255 251 264 251 256 257 260 268 268 320 334 322
nan nan nan nan nan nan nan nan nan nan nan nan nan nan nan nan nan nan nan nan nan nan nan nan 227 233 232 239 246 243 247 248 251 251 238 237 257 253 252 253 257 269 254 248 277 292 337 324 322
nan nan nan nan nan nan nan nan nan nan nan nan nan nan nan nan nan nan nan nan nan nan nan 254 249 nan nan 233 237 242 244 244 245 246 252 250 243 246 244 258 264 259 274 253 276 265 318 310 317
nan nan nan nan nan nan nan nan nan nan nan nan nan nan nan nan nan nan nan nan nan nan nan nan 252 nan nan 240 237 235 237 240 238 244 252 244 248 252 259 264 264 247 250 265 233 264 206 309 320
nan nan nan nan nan nan nan nan nan nan nan nan nan nan nan nan nan nan nan nan nan nan nan nan nan 249 nan 256 253 243 246 250 243 245 246 257 259 261 265 267 272 nan nan nan nan nan 178 302 321
nan nan nan nan nan nan nan nan nan nan nan nan nan nan nan nan nan nan nan nan nan nan nan nan nan nan nan nan 260 261 237 239 241 245 244 246 255 256 264 273 293 nan nan nan 312 322 342 310 309
nan nan nan nan nan nan nan nan nan nan nan nan nan nan nan nan nan nan nan nan nan nan nan nan nan nan nan nan 255 258 257 265 268 252 240 242 244 249 254 261 284 286 313 297 303 318 311 304 309
nan nan nan nan nan nan nan nan nan nan nan nan nan nan nan nan nan nan nan nan nan nan nan 263 263 nan nan nan nan nan 258 260 260 258 263 255 248 247 243 254 250 272 289 295 301 300 295 301 297
262 nan nan nan nan nan nan nan nan nan nan nan nan nan nan nan nan nan nan nan nan nan nan 255 258 258 nan nan nan 259 nan 254 251 252 250 252 254 259 262 250 260 251 276 287 293 292 296 306 292
nan 217 262 257 nan nan 240 nan nan nan nan nan nan nan nan nan nan nan nan nan nan nan nan nan nan nan nan nan nan nan 258 257 256 256 251 247 246 248 249 262 264 268 270 270 285 287 291 292 290